sat.trackr.live / text

‹ back to catalog

ORBASTRO-TR5

NORAD 63236 · 2025-052AC

PAYLOAD ACTIVE UNKNOWN

§ Identity

Operator
Country
UK
Launch date
2025-03-15
Launch site
AFWTR
Launch vehicle
Mass (kg)
RCS (m²)

External: N2YO · Heavens-Above · Gunter

§ Orbital elements

Epoch: 2026-09-22T15:19:17.927616Z

Period
94.56 min
Inclination
97.3687°
Eccentricity
0.0004362
Mean motion
15.22768191 rev/d
Perigee alt
494.5 km
Apogee alt
500.5 km
Semi-major
6,875.6 km
B*
1.3244e-4
RAAN
155.5036°
Arg perigee
148.6020°
Mean anomaly
211.5478°
Rev number
8,464

§ Raw data

ORBASTRO-TR51 63236U 25052AC  26265.63840194  .00003024  00000+0  13244-3 0  99952 63236  97.3687 155.5036 0004362 148.6020 211.5478 15.22768191 84645

JSON: /api/v1/satellites/63236 · /tle

For live sub-satellite position, see the globe view (requires WebGL).

§ Visibility from observer

Set your observer location to see the next 7 days of passes ≥ 10°. The values pass through the URL so the page stays shareable.

No JS? Fill the form by hand. The geolocation button needs JavaScript.

§ Radio — SatNOGS DB

ModeDescriptionDownlinkUplink
FM S-band telemetry 2.260 GHz

1 transmitter · refreshed weekly from db.satnogs.org